Temperature
19 19 19 19 19 19 19 19 19 19 19 19 19 19 19 19 18 18 19 19 19 18 18 18 18 18 18 18 18 18 18 18 18 18 18 18 18 18 18 18 18 18 18
19 19 19 19 19 19 19 19 19 19 19 19 19 19 19 19 18 18 19 19 19 19 18 18 18 18 18 18 18 18 18 18 18 18 18 17 17 17 17 18 18 18 17
19 19 19 19 19 19 19 19 19 19 19 19 19 19 19 19 18 18 19 19 19 19 18 18 18 18 18 18 18 18 18 18 18 18 18 18 17 17 17 17 17 17 17
19 19 19 19 19 19 19 19 19 19 19 19 19 19 19 19 18 19 19 19 18 18 18 18 18 18 18 18 18 18 18 18 18 17 17 17 17 17 17 17 17 17 17
19 19 19 19 19 19 19 19 19 19 19 19 19 19 19 19 19 19 19 19 18 18 18 18 18 18 18 18 18 18 18 18 17 17 17 17 17 17 17 17 17 17 17
19 19 19 19 19 19 19 19 19 19 19 19 19 19 19 19 19 19 19 19 18 18 18 18 18 18 18 18 18 18 18 17 17 17 17 17 17 17 17 17 17 17 17
20 19 19 19 19 19 19 19 19 19 19 19 19 19 19 18 18 18 19 18 18 18 18 18 18 18 18 18 18 18 18 17 17 17 17 17 17 17 17 17 17 17 17
20 20 19 19 19 19 19 19 19 19 19 19 19 19 18 18 18 18 18 18 18 18 18 18 18 18 18 18 18 18 18 18 18 18 17 17 17 17 17 17 17 17 17
20 20 19 19 19 19 19 19 19 19 19 19 19 19 18 18 18 18 18 18 18 18 18 18 18 18 18 18 17 17 17 17 18 18 17 17 17 17 17 17 17 17 17
20 20 19 19 19 19 19 19 19 19 19 19 19 18 18 18 18 18 18 18 18 18 18 18 18 18 18 18 18 18 17 18 18 17 17 17 17 17 17 17 17 17 17
20 19 19 19 19 19 19 19 19 19 19 19 18 18 18 18 18 18 18 18 18 18 18 18 18 18 18 18 18 18 17 17 17 17 17 17 17 17 17 17 17 17 17
20 19 19 19 19 19 19 19 19 19 19 19 18 18 18 18 18 18 18 18 18 18 18 18 18 18 18 18 18 18 17 17 17 17 17 17 17 17 17 17 17 17 17
20 20 19 19 19 19 19 19 19 19 19 19 19 18 18 18 18 18 18 18 18 18 18 18 18 18 18 18 18 18 18 17 17 17 17 17 17 17 17 17 17 17 17
20 20 20 19 19 19 19 19 19 19 19 19 18 18 18 18 18 18 18 18 18 18 18 18 18 18 18 18 18 18 18 17 17 17 17 17 17 17 17 17 17 17 17
20 20 20 20 19 19 19 19 19 19 19 19 18 18 18 18 18 18 18 18 18 18 18 18 18 18 18 18 18 18 18 17 17 17 17 17 17 17 17 17 17 17 17
20 20 20 20 20 19 19 19 19 19 19 19 19 18 18 18 18 18 18 18 18 18 18 18 18 18 18 18 17 17 17 17 17 17 17 17 17 17 17 17 17 17 17
20 20 20 20 20 19 19 19 19 19 19 19 18 18 18 18 18 18 18 18 18 18 18 18 18 18 17 17 17 17 17 17 17 17 17 17 17 17 17 17 17 17 17
21 20 20 20 20 19 19 19 19 19 19 19 18 18 18 18 18 18 18 18 18 18 18 18 18 17 17 17 17 17 17 17 17 17 17 17 17 17 17 17 17 17 16
21 21 20 20 20 20 19 19 19 19 19 19 18 18 18 18 18 18 18 18 18 18 18 18 17 18 17 17 17 17 17 17 17 17 17 17 17 17 17 16 16 16 16
21 21 20 20 20 19 19 19 19 19 19 19 18 18 18 18 18 18 18 18 18 18 18 18 18 18 17 17 17 17 17 17 17 17 17 17 16 16 16 16 16 16 16
21 21 21 20 20 20 19 19 19 19 19 19 19 18 18 18 18 18 18 18 18 18 18 18 18 18 17 17 17 17 16 16 16 16 17 17 16 16 16 16 16 16 16
21 21 21 20 20 20 20 19 19 19 19 19 19 18 18 18 18 18 18 18 18 18 18 18 18 18 17 17 17 17 16 16 16 16 17 17 17 16 16 16 16 16 16
22 21 21 21 20 20 20 19 19 19 19 19 19 19 18 18 18 18 18 18 18 18 18 18 18 18 17 17 17 17 17 17 16 16 17 17 17 17 16 16 16 16 16
22 22 21 21 21 20 20 20 19 19 19 19 19 19 18 18 18 18 18 18 18 18 18 18 18 17 17 18 18 18 18 17 17 16 16 16 16 16 16 16 16 16 16
22 22 22 21 21 20 20 20 20 20 19 19 19 19 18 18 18 18 18 18 18 18 18 18 17 17 17 18 18 18 18 17 17 17 16 16 16 16 16 16 16 16 16
22 22 22 21 21 21 20 20 20 20 19 19 19 19 18 18 18 18 18 18 18 18 18 18 18 17 17 17 17 17 17 17 17 17 17 16 16 16 16 16 16 16 15
Wind_Speed
1 1 6 9 10 11 11 12 12 13 12 12 13 13 13 13 13 12 13 13 13 14 15 15 15 15 16 17 18 18 18 18 18 17 16 16 16 15 15 15 14 12 15
4 3 8 9 10 10 11 11 12 12 12 12 13 12 13 13 12 12 12 12 14 15 16 15 15 15 15 17 18 18 18 18 17 16 15 14 14 14 14 14 13 12 14
4 5 8 9 10 10 10 11 11 12 12 12 12 12 12 13 12 12 13 13 14 15 16 15 14 15 15 17 18 18 18 17 17 16 14 12 12 12 14 14 13 13 14
7 6 8 10 10 10 10 10 10 11 11 11 11 12 12 12 12 12 13 13 14 15 15 14 14 15 16 17 17 17 17 17 16 15 11 11 11 13 14 14 13 13 13
7 6 8 10 9 10 10 9 9 10 10 11 11 11 12 12 11 12 13 13 13 14 14 14 13 13 15 15 16 16 16 16 15 13 10 10 11 14 15 15 13 12 12
6 6 8 9 9 10 10 9 9 9 9 10 10 11 11 11 11 12 12 12 12 12 12 13 13 13 13 14 15 14 14 14 13 11 10 10 11 14 15 14 13 13 12
6 5 8 9 9 9 9 9 9 8 9 9 10 11 11 11 11 11 11 11 11 12 12 11 12 12 13 13 13 13 13 13 12 10 10 10 11 13 13 13 12 13 13
7 6 7 9 9 8 8 8 8 8 9 10 10 10 10 11 11 10 10 10 10 10 11 11 12 11 11 12 11 12 13 12 11 10 9 10 12 13 13 12 12 12 12
7 6 5 6 7 7 7 7 7 8 8 9 9 10 10 10 10 10 9 9 9 9 11 11 12 11 10 10 10 11 12 11 10 9 10 9 12 13 12 12 12 12 12
5 4 4 4 4 5 5 6 6 7 8 8 8 9 9 9 9 9 8 8 9 9 10 11 10 10 10 9 9 10 11 10 10 9 9 10 13 13 12 12 11 11 11
5 4 4 4 4 4 4 4 4 5 6 6 6 7 7 6 6 6 6 8 8 9 10 10 10 9 8 8 9 10 10 7 9 8 8 11 12 12 12 11 11 11 10
5 4 3 3 3 4 4 4 4 4 4 4 4 5 5 5 5 6 6 7 8 9 9 9 9 8 6 6 7 8 7 8 7 7 8 11 12 11 10 10 10 10 10
6 5 4 4 3 3 3 4 3 3 3 3 4 5 5 4 4 4 4 4 5 6 5 6 5 5 4 4 5 6 7 7 6 7 8 11 11 10 9 9 9 9 9
6 6 4 4 3 3 3 3 3 3 2 2 3 5 4 3 3 3 2 3 3 4 5 5 4 5 5 5 6 6 7 6 7 7 9 12 11 9 9 8 9 8 8
6 5 5 5 4 3 3 3 4 4 4 4 5 5 5 3 3 3 3 3 3 4 4 4 4 4 5 5 6 7 6 6 7 7 8 10 10 9 8 8 8 8 8
6 5 5 5 4 4 3 2 3 4 5 4 4 5 5 4 4 3 3 3 3 4 5 5 5 4 4 5 5 6 6 7 7 7 7 8 9 7 6 7 8 8 8
7 6 6 5 4 4 4 3 3 4 5 4 3 5 5 5 5 4 3 3 4 5 6 6 5 5 5 5 4 4 5 6 7 6 6 6 6 6 5 6 6 7 7
7 6 5 6 5 4 4 4 4 4 4 3 4 4 5 5 6 5 4 3 4 5 5 4 4 5 4 4 3 3 3 4 5 5 5 5 5 4 4 4 5 5 6
8 7 5 5 5 4 4 4 4 4 4 3 4 4 5 6 7 6 4 3 5 4 3 4 4 4 4 4 3 2 2 2 3 5 5 5 5 4 4 4 4 5 6
8 7 6 5 5 4 3 4 3 3 2 3 3 4 5 5 7 6 4 4 5 4 3 3 4 3 3 3 4 3 2 1 2 3 4 4 4 5 5 4 3 4 6
7 6 6 5 4 4 3 3 3 2 1 1 2 4 5 5 6 6 4 4 4 3 3 4 4 4 2 3 4 3 3 2 1 1 2 3 3 4 4 4 3 4 4
8 7 6 6 5 4 3 3 3 3 2 2 2 2 4 5 6 6 5 3 3 3 3 3 4 3 2 3 4 3 1 2 2 0 1 2 2 3 3 4 4 5 4
8 8 7 6 5 4 4 3 3 3 2 2 1 1 2 4 5 5 6 5 4 4 4 3 4 4 3 2 2 4 3 3 1 2 1 1 1 1 1 2 4 5 5
10 8 8 7 6 5 5 5 5 4 3 3 2 2 1 3 4 5 5 5 4 3 4 3 3 3 4 2 1 1 3 4 3 1 2 1 0 1 1 2 2 4 5
10 9 8 8 7 5 6 6 5 4 3 2 2 2 1 1 2 3 4 4 4 3 3 3 3 3 3 3 2 1 1 1 2 3 1 1 1 1 0 1 2 3 4
9 9 9 8 7 6 6 6 6 6 5 4 3 3 1 0 0 1 3 3 3 3 3 3 3 3 2 2 2 2 2 2 3 3 3 2 1 1 1 0 1 2 4
Wind_Direction
169 149 92 88 86 86 84 84 83 83 86 91 96 102 106 109 111 115 120 124 133 139 142 143 142 143 146 149 149 149 147 145 145 144 144 142 139 138 136 135 134 134 136
153 132 104 96 93 90 89 89 87 86 88 95 100 104 106 107 107 112 120 125 134 137 140 142 140 140 143 147 149 149 147 145 143 141 143 143 142 142 141 142 140 141 140
128 123 110 102 100 96 93 93 93 90 91 95 100 103 106 107 108 111 118 122 129 134 136 137 137 137 140 144 147 148 145 143 140 141 140 139 141 141 141 142 141 143 142
131 123 114 107 102 101 99 97 98 96 94 95 101 106 109 108 110 113 118 122 124 129 133 136 137 137 139 141 144 144 144 146 145 143 140 141 143 140 141 146 146 146 146
126 128 123 110 106 106 105 103 104 102 101 101 106 111 114 112 111 114 119 123 126 129 131 135 136 138 140 142 143 144 145 148 146 140 137 139 143 144 145 149 147 148 153
131 137 127 114 113 113 110 107 110 109 108 108 111 116 116 116 114 113 116 120 124 128 129 132 136 135 140 142 145 146 146 144 141 138 135 140 146 149 151 153 153 153 154
139 140 131 123 122 120 117 112 111 114 113 114 114 116 118 117 117 114 116 119 122 127 132 131 133 131 133 139 143 145 148 147 142 138 138 141 149 153 154 155 155 157 157
143 141 135 129 128 125 123 118 115 117 120 120 119 119 122 123 118 117 120 121 123 125 130 130 135 132 135 140 141 143 147 147 146 145 145 149 155 157 157 157 156 156 156
142 139 135 136 135 132 128 123 121 118 120 123 123 125 125 126 122 122 123 125 124 123 126 127 131 134 135 135 137 143 146 145 139 146 153 155 160 160 161 162 160 160 159
140 143 148 141 136 138 136 129 129 125 121 124 127 128 128 128 128 128 127 129 127 125 129 132 134 135 135 134 135 141 141 136 137 145 150 159 163 165 166 164 163 161 161
140 144 144 147 157 162 152 140 137 129 121 123 132 134 128 124 129 127 132 133 132 130 134 137 133 132 132 129 128 132 129 126 133 140 151 160 163 167 169 170 169 165 164
151 152 144 142 148 156 150 145 138 124 111 114 121 125 120 126 135 135 140 138 137 136 133 132 131 126 121 116 117 120 120 122 129 137 151 161 163 163 164 167 168 165 165
158 149 149 148 145 140 130 136 133 126 109 108 117 121 118 114 118 124 129 130 126 126 124 120 117 110 111 112 110 115 122 126 132 139 142 146 147 147 154 161 164 166 167
146 150 148 139 128 127 128 132 131 125 115 117 111 111 113 116 112 123 128 122 114 120 120 114 105 103 107 110 115 118 125 126 132 135 144 149 150 152 157 164 167 170 172
139 141 140 138 133 123 113 117 120 127 127 123 115 114 117 117 116 115 117 116 117 118 119 117 108 105 106 105 109 113 119 127 134 137 144 151 153 159 163 169 175 180 182
147 149 143 138 137 121 114 111 121 126 127 119 121 131 123 125 123 116 103 102 115 123 126 122 115 107 101 102 102 106 115 120 124 129 139 152 156 157 167 174 180 178 178
149 149 147 142 135 128 133 130 126 122 124 122 123 128 126 122 123 120 107 103 116 122 117 111 104 100 101 100 99 105 109 115 122 126 132 139 153 160 160 158 162 168 172
147 147 150 144 131 125 125 122 114 112 115 121 127 129 125 126 125 118 112 111 119 115 113 110 106 104 100 101 100 102 103 112 125 132 133 134 136 145 158 157 158 164 171
151 146 139 135 134 134 125 110 109 114 114 119 122 127 129 131 132 128 123 123 123 112 111 125 114 119 117 115 118 111 103 122 135 134 128 136 144 150 158 171 174 176 180
148 143 138 131 133 130 115 98 92 89 98 109 120 130 132 130 132 128 128 130 124 112 110 116 122 120 125 132 125 107 94 125 134 145 149 146 156 165 168 172 185 194 189
145 142 139 134 137 126 118 122 123 127 126 113 125 130 127 130 135 131 126 128 125 130 145 143 130 123 123 120 100 73 34 37 92 152 133 138 161 174 166 171 179 181 192
159 155 149 149 150 149 155 149 148 146 144 145 129 125 126 129 135 141 133 142 140 138 138 143 136 134 156 152 139 129 92 7 359 338 149 160 178 167 172 183 175 178 187
166 166 162 162 165 166 151 125 117 96 78 72 98 140 146 141 140 142 147 146 153 154 159 171 162 155 176 206 169 153 155 195 260 344 343 154 160 160 171 168 173 182 188
176 169 161 165 171 166 150 141 144 150 158 179 170 157 145 141 144 148 151 151 155 159 164 182 172 164 161 183 215 189 171 159 160 194 333 327 180 173 194 167 157 165 168
173 169 168 167 174 167 156 154 148 150 164 159 131 126 118 105 148 148 152 154 158 163 171 176 165 158 162 170 180 178 150 140 149 159 216 289 346 324 227 149 134 140 142
171 170 171 170 177 174 166 160 156 159 157 144 142 144 153 139 187 167 149 154 162 166 174 177 174 163 166 170 171 171 173 174 182 167 188 207 221 276 307 126 135 126 129
Height
1517 1515 1514 1513 1512 1511 1510 1508 1507 1506 1505 1505 1505 1505 1505 1505 1505 1506 1505 1505 1505 1507 1509 1511 1513 1515 1517 1519 1521 1524 1527 1529 1532 1534 1537 1538 1540 1542 1543 1545 1546 1547 1549
1517 1516 1515 1514 1513 1512 1511 1510 1509 1508 1507 1506 1506 1506 1506 1507 1506 1506 1506 1505 1505 1507 1509 1512 1514 1516 1517 1519 1522 1524 1527 1530 1532 1534 1537 1538 1540 1542 1544 1545 1547 1548 1549
1517 1517 1516 1515 1515 1514 1512 1511 1511 1510 1509 1508 1508 1508 1508 1508 1508 1507 1507 1507 1507 1508 1511 1513 1515 1516 1518 1520 1523 1525 1528 1530 1533 1535 1537 1539 1541 1542 1544 1546 1547 1548 1549
1518 1517 1517 1516 1516 1515 1514 1513 1512 1511 1511 1510 1509 1509 1510 1510 1509 1508 1509 1509 1510 1511 1513 1515 1517 1518 1520 1522 1524 1526 1529 1531 1533 1536 1538 1539 1541 1543 1544 1546 1547 1548 1549
1519 1518 1518 1517 1516 1516 1515 1514 1513 1513 1512 1511 1511 1511 1511 1511 1511 1510 1511 1512 1513 1514 1515 1517 1518 1520 1522 1524 1526 1528 1530 1532 1534 1537 1539 1540 1542 1544 1545 1546 1547 1548 1550
1520 1520 1519 1518 1517 1517 1516 1515 1514 1514 1513 1513 1513 1513 1513 1513 1513 1513 1513 1514 1515 1516 1518 1519 1520 1522 1523 1525 1527 1529 1531 1533 1535 1537 1539 1541 1543 1544 1546 1547 1548 1549 1550
1521 1521 1520 1519 1518 1518 1518 1517 1516 1515 1515 1515 1515 1515 1515 1515 1515 1516 1516 1516 1517 1518 1519 1520 1522 1524 1525 1527 1529 1530 1532 1534 1536 1538 1540 1541 1543 1545 1546 1547 1548 1549 1550
1523 1522 1522 1521 1520 1520 1519 1518 1518 1517 1517 1516 1516 1517 1517 1518 1518 1519 1519 1519 1520 1521 1521 1522 1523 1526 1528 1529 1530 1532 1533 1535 1537 1539 1541 1542 1543 1545 1546 1547 1548 1549 1550
1525 1524 1523 1522 1522 1521 1521 1520 1519 1519 1518 1519 1519 1519 1520 1520 1521 1521 1521 1522 1522 1523 1523 1524 1526 1528 1530 1531 1532 1533 1535 1536 1538 1539 1541 1542 1544 1545 1546 1547 1548 1549 1550
1526 1526 1525 1524 1524 1523 1522 1522 1521 1521 1521 1521 1521 1521 1522 1522 1523 1523 1524 1524 1525 1525 1526 1527 1528 1530 1532 1533 1534 1535 1537 1538 1539 1540 1541 1543 1544 1545 1547 1548 1548 1549 1550
1527 1527 1526 1526 1525 1524 1524 1524 1523 1523 1523 1523 1523 1524 1524 1524 1525 1525 1526 1527 1527 1527 1528 1529 1530 1532 1534 1535 1536 1537 1538 1539 1540 1540 1542 1544 1545 1546 1547 1548 1549 1549 1550
1528 1528 1528 1527 1526 1526 1525 1525 1525 1525 1525 1525 1525 1526 1526 1526 1527 1527 1527 1528 1528 1529 1530 1532 1533 1534 1536 1537 1538 1539 1540 1540 1541 1542 1543 1544 1545 1546 1547 1548 1549 1549 1550
1528 1528 1529 1528 1528 1527 1527 1526 1526 1526 1526 1527 1527 1528 1528 1528 1528 1529 1529 1529 1530 1531 1532 1533 1534 1536 1537 1538 1539 1540 1541 1542 1543 1543 1544 1545 1546 1547 1547 1548 1549 1550 1550
1529 1529 1529 1529 1529 1528 1528 1528 1528 1528 1528 1528 1529 1529 1530 1530 1530 1530 1531 1531 1531 1532 1533 1535 1536 1537 1538 1539 1541 1542 1542 1543 1544 1545 1545 1546 1547 1547 1548 1548 1549 1549 1550
1529 1530 1530 1530 1530 1530 1530 1529 1529 1529 1530 1530 1530 1530 1531 1531 1531 1532 1532 1532 1533 1534 1535 1536 1537 1538 1539 1541 1542 1543 1544 1545 1545 1546 1547 1548 1548 1548 1548 1549 1549 1550 1550
1530 1530 1531 1531 1531 1531 1531 1531 1531 1531 1531 1531 1532 1532 1532 1532 1532 1533 1534 1534 1535 1536 1537 1538 1539 1540 1541 1542 1543 1544 1545 1546 1547 1547 1548 1548 1548 1548 1549 1549 1549 1549 1550
1530 1531 1531 1531 1531 1531 1530 1531 1532 1532 1532 1533 1533 1533 1534 1534 1534 1534 1535 1536 1536 1537 1538 1539 1540 1541 1543 1544 1544 1546 1546 1547 1548 1548 1548 1549 1549 1549 1549 1549 1549 1549 1549
1530 1531 1532 1532 1532 1532 1532 1533 1533 1534 1534 1534 1534 1535 1535 1535 1535 1535 1536 1537 1538 1539 1540 1541 1542 1543 1544 1545 1546 1547 1547 1548 1549 1549 1549 1549 1549 1549 1549 1548 1548 1549 1549
1530 1531 1532 1532 1533 1533 1534 1534 1535 1535 1535 1536 1536 1536 1536 1536 1537 1537 1538 1538 1539 1540 1541 1542 1543 1543 1544 1545 1546 1547 1548 1549 1549 1549 1549 1549 1549 1549 1548 1548 1548 1548 1549
1531 1531 1532 1533 1533 1534 1535 1535 1535 1536 1536 1537 1537 1537 1537 1538 1538 1538 1539 1540 1541 1541 1542 1542 1543 1544 1545 1546 1547 1548 1549 1549 1550 1550 1550 1549 1549 1549 1549 1548 1548 1548 1548
1530 1531 1532 1533 1534 1534 1535 1535 1536 1536 1537 1537 1538 1538 1538 1539 1539 1540 1540 1541 1541 1542 1542 1543 1544 1545 1546 1547 1547 1548 1549 1549 1549 1549 1549 1549 1549 1549 1548 1548 1548 1548 1548
1530 1531 1532 1533 1534 1535 1535 1536 1537 1537 1538 1538 1539 1539 1539 1540 1540 1541 1541 1541 1542 1542 1543 1544 1544 1545 1546 1547 1547 1547 1548 1550 1548 1549 1549 1549 1549 1548 1547 1547 1547 1547 1547
1528 1530 1531 1532 1533 1534 1535 1536 1537 1537 1538 1538 1539 1539 1540 1540 1541 1541 1541 1541 1542 1542 1543 1543 1544 1544 1545 1546 1547 1547 1547 1547 1548 1548 1548 1548 1548 1548 1547 1546 1546 1546 1546
1527 1529 1530 1531 1532 1534 1535 1535 1536 1536 1537 1537 1538 1539 1540 1540 1541 1541 1541 1541 1542 1542 1542 1543 1543 1544 1544 1544 1545 1546 1546 1546 1546 1547 1547 1547 1547 1547 1547 1546 1545 1545 1545
1526 1527 1529 1530 1532 1533 1534 1535 1535 1536 1536 1537 1538 1539 1539 1540 1540 1541 1541 1541 1541 1541 1541 1542 1542 1543 1543 1543 1544 1544 1544 1545 1545 1545 1545 1546 1546 1546 1546 1545 1544 1544 1544
1524 1526 1528 1529 1530 1532 1533 1534 1534 1535 1536 1537 1537 1538 1538 1539 1539 1540 1540 1540 1540 1540 1540 1540 1541 1541 1542 1542 1542 1543 1543 1543 1543 1543 1543 1543 1544 1544 1544 1544 1543 1543 1543